Погода в Взваде

Россия / Новгородская область     58°09′37″N   31°28′15″E
темп.,
°C
ветер,
м/с
пор.,
м/с
влажн.,
%
обл.,
%
осадки,
мм/ч
давл.,
гПа
погр.,
м
7 мая, пт
пт700:00+5юз81391100 0.6 1000462
03:00+5юз91485100 0.7 1001511
06:00+4ююз7128578 0.0 1002474
09:00+5юз8118096 0.1 1003464
12:00+7юз6107087 0.1 1004494
15:00+8зюз6106669 0.3 1005548
18:00+8юз4664100 0.1 1005402
21:00+7ю3375100 0.1 100512
8 мая, сб
сб800:00+5ююв4583100 0.1 100580
03:00+5всв4697100 6.1 1003197
06:00+5сз3399100 8.4 1000214
09:00+4зсз4796100 10.5 1003327
12:00+5з5791100 0.3 1005320
15:00+5зсз6108980 0.5 1007464
18:00+5зсз478469 0.3 1008263
21:00+4зсз458571 0.5 101062
9 мая, вс
вс900:00+3зсз611905 0.0 1011294
03:00+2зсз6118588 0.0 1013316
06:00+2зсз610834 0.0 1015297
09:00+4з46770 0.0 1017260
12:00+7з46600 0.0 1018403
15:00+8з355873 0.0 1020492
18:00+9зюз345688 0.0 1020482
21:00+7ююз4669100 0.0 102157
10 мая, пн
пн1000:00+6ю5877100 0.0 102283
03:00+6ююз6978100 0.0 1022165
06:00+6ююв71486100 1.0 1021267
09:00+7ююз71178100 1.0 1023216
12:00+11юз696955 0.0 1023276
15:00+13юз696515 0.0 1024379
18:00+14юз57685 0.0 1024383
21:00+11ю568242 0.0 102569
11 мая, вт
вт1100:00+10ю5985100 0.0 1026114
03:00+8ю5791100 0.0 102782
06:00+8ю588883 0.0 1027106
09:00+10ю687365 0.0 1028157
12:00+13ю68615 0.0 1028290
15:00+14ююз68560 0.0 1027363
18:00+15ю47595 0.0 1026331
21:00+12ю44775 0.0 102621